Weather History for New Richmond, WI

Change the Weather History Date:

Saturday, August 4, 2012

  Actual Average (KMSP) Record (KMSP)
Temperature  
Mean Temperature 66 °F 73 °F  
Max Temperature 73 °F 82 °F 102 °F (1947)
Min Temperature 60 °F 63 °F 48 °F (1978)
Degree Days  
Heating Degree Days 0 0  
Month to date heating degree days 0  
Since 1 June heating degree days 49  
Since 1 July heating degree days 5  
Cooling Degree Days 2 8  
Month to date cooling degree days 32  
Year to date cooling degree days 508  
Since 1 June cooling degree days 466  
Growing Degree Days 16 (Base 50)    
Moisture  
Dew Point 60 °F    
Average Humidity 82    
Maximum Humidity 100    
Minimum Humidity 53    
Precipitation  
Precipitation 0.95 in 0.15 in 2.65 in (1941)
Month to date precipitation 0.60  
Year to date precipitation 18.47  
Snow  
Snow 0.00 in 0.00 in 0.00 in ()
Month to date snowfall 0.0  
Since 1 June snowfall 0.0  
Since 1 July snowfall 0.0  
Snow Depth -    
Sea Level Pressure  
Sea Level Pressure 29.86 in    
Wind  
Wind Speed 8 mph (WSW)    
Max Wind Speed 16 mph    
Max Gust Speed 31 mph    
Visibility 10 miles    
Events Rain    
T = Trace of Precipitation, MM = Missing Value Source: NWS Daily Summary

Daily Weather History Graph

Daily Weather History Graph

Search for Another Location

Airport:

Trip Planner

Search our weather history database for the weather conditions in past years. The results will help you decide how hot, cold, wet, or windy it might be!

Date:

Astronomy

Aug. 04, 2012 Rise Set
Actual Time 5:59 AM CDT 8:32 PM CDT
Civil Twilight 5:25 AM CDT 9:05 PM CDT
Nautical Twilight 4:43 AM CDT 9:47 PM CDT
Astronomical Twilight 3:55 AM CDT 10:34 PM CDT
Moon 9:28 PM CDT (8/4) 8:57 AM CDT (8/4)
Length of Visible Light 15h 40m
Length of Day
14h 33m
Waning Gibbous, 92% of the Moon is Illuminated
Aug 4
Waning Gibbous
Aug 9
Last Quarter
Aug 17
New
Aug 24
First Quarter
Aug 31
Full

Hourly Weather History & Observations

Time (CDT) Temp. Dew Point Humidity Pressure Visibility Wind Dir Wind Speed Gust Speed Precip Events Conditions
12:15 AM 62.6 °F 62.6 °F 100% 29.93 in 1.8 mi WNW 16.1 mph 31.1 mph 0.65 in Rain Heavy Rain
12:35 AM 62.6 °F 62.6 °F 100% 29.90 in 7.0 mi NW 11.5 mph 20.7 mph 0.80 in Rain Rain
12:55 AM 64.4 °F 62.6 °F 94% 29.91 in 7.0 mi South 4.6 mph - 0.85 in Rain Heavy Rain
1:15 AM 64.4 °F 62.6 °F 94% 29.87 in 7.0 mi East 3.5 mph - 0.05 in Rain Rain
1:35 AM 62.6 °F 62.6 °F 100% 29.85 in 10.0 mi SSE 12.7 mph - 0.08 in Rain Light Rain
1:55 AM 62.6 °F 62.6 °F 100% 29.75 in 10.0 mi ESE 15.0 mph 24.2 mph 0.09 in Rain Light Rain
2:15 AM 64.4 °F 62.6 °F 94% 29.82 in 10.0 mi SSW 4.6 mph 21.9 mph N/A   Scattered Clouds
2:35 AM 64.4 °F 62.6 °F 94% 29.82 in 10.0 mi Calm Calm - N/A   Scattered Clouds
2:55 AM 64.4 °F 62.6 °F 94% 29.82 in 10.0 mi Calm Calm - N/A   Scattered Clouds
3:15 AM 64.4 °F 62.6 °F 94% 29.82 in 10.0 mi Calm Calm - N/A   Scattered Clouds
3:35 AM 62.6 °F 62.6 °F 100% 29.82 in 10.0 mi Calm Calm - N/A   Scattered Clouds
3:55 AM 62.6 °F 62.6 °F 100% 29.82 in 10.0 mi SE 4.6 mph - N/A   Clear
4:15 AM 62.6 °F 62.6 °F 100% 29.82 in 10.0 mi SE 3.5 mph - N/A   Clear
4:35 AM 62.6 °F 62.6 °F 100% 29.82 in 10.0 mi SE 4.6 mph - N/A   Clear
4:55 AM 62.6 °F 62.6 °F 100% 29.82 in 10.0 mi SSE 3.5 mph - N/A   Scattered Clouds
5:15 AM 62.6 °F 62.6 °F 100% 29.82 in 10.0 mi SE 4.6 mph - N/A   Scattered Clouds
5:35 AM 62.6 °F 62.6 °F 100% 29.82 in 10.0 mi Calm Calm - N/A   Clear
5:55 AM 60.8 °F 60.8 °F 100% 29.84 in 10.0 mi South 4.6 mph - N/A   Scattered Clouds
6:15 AM 62.6 °F 62.6 °F 100% 29.85 in 10.0 mi SSW 5.8 mph - N/A   Clear
6:35 AM 62.6 °F 62.6 °F 100% 29.84 in 10.0 mi South 4.6 mph - N/A   Clear
6:55 AM 62.6 °F 62.6 °F 100% 29.82 in 10.0 mi SE 3.5 mph - N/A   Clear
7:15 AM 62.6 °F 62.6 °F 100% 29.82 in 10.0 mi SSE 5.8 mph - N/A   Clear
7:35 AM 62.6 °F 62.6 °F 100% 29.83 in 10.0 mi South 8.1 mph - N/A   Clear
7:55 AM 64.4 °F 64.4 °F 100% 29.84 in 10.0 mi SSW 8.1 mph - N/A   Clear
8:15 AM 64.4 °F 64.4 °F 100% 29.86 in 10.0 mi SW 10.4 mph - N/A   Scattered Clouds
8:35 AM 66.2 °F 64.4 °F 94% 29.84 in 10.0 mi SSW 10.4 mph - N/A   Overcast
8:55 AM 66.2 °F 64.4 °F 94% 29.83 in 10.0 mi SSW 11.5 mph 16.1 mph N/A   Overcast
9:15 AM 66.2 °F 64.4 °F 94% 29.81 in 10.0 mi SW 9.2 mph - N/A   Overcast
9:35 AM 66.2 °F 64.4 °F 94% 29.84 in 10.0 mi SSW 10.4 mph - N/A   Mostly Cloudy
9:55 AM 66.2 °F 64.4 °F 94% 29.86 in 10.0 mi SW 13.8 mph 17.3 mph N/A   Overcast
10:15 AM 66.2 °F 64.4 °F 94% 29.88 in 10.0 mi WSW 11.5 mph - N/A   Overcast
10:35 AM 66.2 °F 64.4 °F 94% 29.88 in 7.0 mi WSW 11.5 mph 20.7 mph N/A Rain Light Rain
10:55 AM 66.2 °F 64.4 °F 94% 29.89 in 4.0 mi WSW 11.5 mph 23.0 mph 0.01 in Rain Light Rain
11:15 AM 68.0 °F 66.2 °F 94% 29.87 in 10.0 mi WSW 12.7 mph - N/A   Mostly Cloudy
11:35 AM 68.0 °F 64.4 °F 88% 29.86 in 10.0 mi West 6.9 mph 10.4 mph N/A   Mostly Cloudy
11:55 AM 68.0 °F 64.4 °F 88% 29.85 in 10.0 mi West 8.1 mph - N/A   Mostly Cloudy
12:15 PM 68.0 °F 64.4 °F 88% 29.86 in 10.0 mi WSW 11.5 mph - N/A   Mostly Cloudy
12:35 PM 68.0 °F 62.6 °F 83% 29.87 in 10.0 mi West 11.5 mph - N/A   Mostly Cloudy
12:55 PM 68.0 °F 60.8 °F 78% 29.87 in 10.0 mi West 9.2 mph - N/A   Scattered Clouds
1:15 PM 68.0 °F 60.8 °F 78% 29.87 in 10.0 mi West 10.4 mph - N/A   Clear
1:35 PM 69.8 °F 60.8 °F 73% 29.87 in 10.0 mi West 8.1 mph - N/A   Clear
1:55 PM 71.6 °F 59.0 °F 64% 29.86 in 10.0 mi WSW 10.4 mph - N/A   Clear
2:15 PM 71.6 °F 57.2 °F 60% 29.86 in 10.0 mi West 6.9 mph - N/A   Clear
2:35 PM 71.6 °F 57.2 °F 60% 29.86 in 10.0 mi West 5.8 mph - N/A   Scattered Clouds
2:55 PM 71.6 °F 57.2 °F 60% 29.86 in 10.0 mi West 10.4 mph - N/A   Scattered Clouds
3:15 PM 73.4 °F 59.0 °F 61% 29.87 in 10.0 mi West 8.1 mph 12.7 mph N/A   Mostly Cloudy
3:35 PM 73.4 °F 59.0 °F 61% 29.87 in 10.0 mi West 9.2 mph - N/A   Scattered Clouds
3:55 PM 73.4 °F 55.4 °F 53% 29.87 in 10.0 mi West 11.5 mph - N/A   Scattered Clouds
4:15 PM 73.4 °F 55.4 °F 53% 29.87 in 10.0 mi WSW 11.5 mph 16.1 mph N/A   Clear
4:35 PM 73.4 °F 55.4 °F 53% 29.87 in 10.0 mi West 8.1 mph - N/A   Scattered Clouds
4:55 PM 73.4 °F 55.4 °F 53% 29.88 in 10.0 mi West 10.4 mph - N/A   Scattered Clouds
5:15 PM 73.4 °F 57.2 °F 57% 29.88 in 10.0 mi West 10.4 mph 17.3 mph N/A   Scattered Clouds
5:35 PM 73.4 °F 55.4 °F 53% 29.87 in 10.0 mi WSW 11.5 mph - N/A   Scattered Clouds
5:55 PM 73.4 °F 55.4 °F 53% 29.88 in 10.0 mi West 10.4 mph 19.6 mph N/A   Clear
6:15 PM 73.4 °F 55.4 °F 53% 29.88 in 10.0 mi West 11.5 mph - N/A   Clear
6:35 PM 73.4 °F 55.4 °F 53% 29.88 in 10.0 mi West 6.9 mph 17.3 mph N/A   Clear
6:55 PM 73.4 °F 55.4 °F 53% 29.88 in 10.0 mi West 10.4 mph - N/A   Clear
7:15 PM 71.6 °F 57.2 °F 60% 29.88 in 10.0 mi West 5.8 mph - N/A   Clear
7:35 PM 71.6 °F 57.2 °F 60% 29.88 in 10.0 mi West 6.9 mph - N/A   Clear
7:55 PM 69.8 °F 57.2 °F 64% 29.87 in 10.0 mi WSW 5.8 mph - N/A   Scattered Clouds
8:15 PM 68.0 °F 57.2 °F 68% 29.88 in 10.0 mi WSW 6.9 mph - N/A   Scattered Clouds
8:35 PM 66.2 °F 55.4 °F 68% 29.88 in 10.0 mi WSW 6.9 mph - N/A   Clear
8:55 PM 64.4 °F 55.4 °F 73% 29.89 in 10.0 mi WSW 8.1 mph - N/A   Clear
9:15 PM 64.4 °F 57.2 °F 77% 29.89 in 10.0 mi West 6.9 mph - N/A   Scattered Clouds
9:35 PM 64.4 °F 55.4 °F 73% 29.89 in 10.0 mi West 9.2 mph - N/A   Clear
9:55 PM 64.4 °F 55.4 °F 73% 29.90 in 10.0 mi West 8.1 mph - N/A   Clear
10:15 PM 62.6 °F 55.4 °F 77% 29.90 in 10.0 mi West 6.9 mph - N/A   Clear
10:35 PM 62.6 °F 55.4 °F 77% 29.90 in 10.0 mi West 5.8 mph - N/A   Clear
10:55 PM 62.6 °F 55.4 °F 77% 29.90 in 10.0 mi West 5.8 mph - N/A   Clear
11:35 PM 62.6 °F 55.4 °F 77% 29.92 in 10.0 mi West 8.1 mph - N/A   Scattered Clouds
11:55 PM 62.6 °F 55.4 °F 77% 29.93 in 10.0 mi WNW 8.1 mph - N/A   Scattered Clouds